Regional Weather Roundup
Issued by NWS Columbia, SC

Home | Current Version | Previous Version | Text Only | Print | Product List | Glossary On
Versions: 1 2 3 4 5 6 7 8 9 10 11 12 13 14 15 16 17 18 19 20 21 22 23 24 25 26 27 28 29 30 31 32 33 34 35 36 37 38 39 40 41 42 43 44 45 46 47 48 49 50
000
ASUS42 KCAE 301410
RWRCAE
REGIONAL WEATHER ROUNDUP
NATIONAL WEATHER SERVICE COLUMBIA SC
1000 AM EDT THU JUL 30 2015

NOTE: "FAIR" INDICATES FEW OR NO CLOUDS BELOW 12,000 FEET WITH NO
SIGNIFICANT WEATHER AND/OR OBSTRUCTIONS TO VISIBILITY.

NOT ALL STATIONS ARE QUALITY CONTROLLED BY THE NATIONAL
WEATHER SERVICE. USE DATA WITH CAUTION...ESPECIALLY
DEWPOINT OBSERVATIONS.

SCZ001>056-GAZ040-063>065-077-301500-
...UPSTATE SOUTH CAROLINA...

CITY           SKY/WX    TMP DP  RH WIND       PRES   REMARKS
ANDERSON       SUNNY     84  74  71 CALM      30.00S HAZE
SPARTANBURG      N/A     84  77  79 NW6       30.00S
CLEMSON        MOSUNNY   85  75  72 VRB5      30.02S
GREENVILLE     SUNNY     85  73  67 CALM      30.02S
GREENWOOD      SUNNY     85  74  69 CALM      30.01S
GREER          SUNNY     83  74  74 N7        30.00R
ROCK HILL      MOSUNNY   83  75  77 CALM      30.00S
CHESTER        SUNNY     84  77  79 W3        30.00S
LAURENS        SUNNY     84  79  84 S3        30.00R HX  96


...CENTRAL SOUTH CAROLINA...

CITY           SKY/WX    TMP DP  RH WIND       PRES   REMARKS
COLUMBIA APT   MOSUNNY   89  72  56 NW5       29.97S HX  96
COLUMBIA OWENS MOSUNNY   86  72  62 CALM      29.98S
DARLINGTON     SUNNY     86  68  54 CALM      29.98F
FLORENCE       SUNNY     87  67  51 W5        29.97S
MCENTIRE ANGB  MOSUNNY   87  73  64 NW6       29.98S
ORANGEBURG     SUNNY     87  70  56 N5        29.98S
SUMTER SHAW    SUNNY     87  69  56 W6        29.96S
NEWBERRY       SUNNY     81  73  78 CALM      30.02S
AIKEN          FAIR      82  70  65 NW7       30.02S
BARNWELL       FAIR      86  75  70 CALM      29.98S HX  95
MANNING        FAIR      86  66  51 CALM      29.97S
CAMDEN         FAIR      86  72  62 W5        29.99S
LANCASTER      SUNNY     82  77  83 W3        29.99S
WINNSBORO      SUNNY     82  73  74 NW3       29.99S


...EASTERN AND COASTAL SOUTH CAROLINA...

CITY           SKY/WX    TMP DP  RH WIND       PRES   REMARKS
MYRTLE BEACH   MOSUNNY   84  73  70 N8        29.98R
N MYRTLE BCH   SUNNY     84  74  71 NE8       29.96S
CONWAY         FAIR      84  72  65 NW3       29.96S
MARION         FAIR      84  70  61 CALM      29.97S
HARTSVILLE     FAIR      86  68  54 CALM      29.97F
FLORENCE       SUNNY     87  67  51 W5        29.97S
DARLINGTON     SUNNY     86  68  54 CALM      29.98F
CHARLESTON APT MOSUNNY   86  75  69 N8        29.96S HX  95
MOUNT PLEASANT FAIR      84  75  74 NW5       29.96S
WALTERBORO     SUNNY     90  70  51 NW3       29.97S HX  95
BEAUFORT       MOSUNNY   87  74  64 N5        29.96S HX  95


...EASTERN GEORGIA...

CITY           SKY/WX    TMP DP  RH WIND       PRES   REMARKS
AUGUSTA BUSH F SUNNY     83  75  77 N3        29.97S
AUGUSTA DANIEL SUNNY     86  74  67 CALM      29.99S
THOMSON        SUNNY     84  80  86 N5        30.03S HX  97
WASHINGTON     FAIR      86  79  79 CALM      29.99F HX  99
CLAXTON        FAIR      81  73  78 CALM      29.97R
SYLVANIA       PTSUNNY   83  77  80 CALM      29.98S
STATESBORO     PTSUNNY   82  76  84 N3        29.97S
SAVANNAH       PTSUNNY   88  70  55 N3        29.96R


...SOUTHERN NORTH CAROLINA...

CITY           SKY/WX    TMP DP  RH WIND       PRES   REMARKS
CHARLOTTE      MOSUNNY   83  72  69 CALM      30.00R
MONROE         FAIR      83  74  74 SW5       29.99S
WADESBORO      SUNNY     86  68  54 S6        29.97F
ROCKINGHAM     CLOUDY    84  67  57 SW6       29.98S
RUTHERFORDTON  SUNNY     81  74  78 CALM      30.03S
ASHEVILLE      SUNNY     77  70  79 NW10      30.10R

$$


USA.gov is the U.S. government's official web portal to all federal, state and local government web resources and services.